Regional Weather Roundup
Issued by NWS Pendleton, OR

Home | Current Version | Previous Version | Text Only | Print | Product List | Glossary On
Versions: 1 2 3 4 5 6 7 8 9 10 11 12 13 14 15 16 17 18 19 20 21 22 23 24 25 26 27 28 29 30 31 32 33 34 35 36 37 38 39 40 41 42 43 44 45 46 47 48 49 50
000
ASUS46 KPDT 231410
RWRPDT
PENDLETON REGIONAL WEATHER ROUNDUP
NATIONAL WEATHER SERVICE PENDLETON OREGON
600 AM PST TUE JAN 23 2018

NOTE: FAIR INDICATES FEW OR NO CLOUDS BELOW 12,000 FEET WITH NO
SIGNIFICANT WEATHER AND/OR OBSTRUCTIONS TO VISIBILITY.

# INDICATES UNOFFICIAL STATION AND DATA

WAZ520-231510-
EAST SLOPES OF WASHINGTON CASCADES

CITY            SKY/WX      TMP DP  RH  WIND    PRES   REMARKS
#BULLFROG       N/A         29  29  100 CALM    N/A
#CLE ELUM HS    N/A         31  29  92  CALM    30.09F
#EASTON DOT     N/A         30  29  96  CALM    N/A
#ELK HTS DOT    N/A         30  30  100 CALM    N/A
#GLENWOOD       N/A         29  28  96  CALM    30.21F
#NELSON 3SW     N/A         27  26  96  CALM    30.41F
#NILE           N/A         28  27  96  CALM    29.47F
#TEANAWAY 4NE   N/A         30  29  96  CALM    N/A
#TROUT LAKE 1NE N/A         29  28  96  CALM    30.22F
#TROUT LAKE 1E  N/A         28  27  96  CALM    30.17F
$$

WAZ521-231510-
SIMCOE HIGHLANDS

CITY            SKY/WX      TMP DP  RH  WIND    PRES   REMARKS
#BICKLETON HS   N/A         32  28  85  SW5     29.74F
#CENTERVILLE 1SWN/A         29  26  88  CALM    30.19F
#GOLDENDALE 1NE N/A         33  25  72  CALM    N/A
#GOLDENDALE 4W  N/A         31  28  88  CALM    30.18F
#GOODNOE HILLS  N/A         33  30  89  CALM    30.08F
#LYLE 6NE       N/A         32  31  96  N1      30.22S
#PITT 4SE       N/A         32  31  96  E2      30.23F
$$

WAZ026-231510-
KITTITAS VALLEY

CITY            SKY/WX      TMP DP  RH  WIND    PRES   REMARKS
#ELLENSBURG CWU N/A         30  28  92  CALM    30.15F
#ELLENSBURG 3NE N/A         30  28  92  CALM    28.22F
#ELLENSBURG 1E  N/A         29  27  92  CALM    30.27F
#KITTITAS 3S    N/A         28  26  92  CALM    30.22F
#MANASTASH RDG  N/A         32  32  100 CALM    N/A
#ROCKY CYN DOT  N/A         31  30  96  E1      N/A
#RYEGRASS DOT   N/A         31  25  78  CALM    N/A
$$

WAZ027-231510-
YAKIMA VALLEY

CITY            SKY/WX      TMP DP  RH  WIND    PRES   REMARKS
SUNNYSIDE AP    CLOUDY      31  29  92  CALM    30.20F
YAKIMA AIRPORT  PTCLDY      33  28  82  CALM    30.19F
YAKIMA-VAGABOND MOCLDY      29  27  92  CALM    30.15F
#DONALD 2NE     N/A         33  16  49  SW1     29.03F
#GRANDVIEW      N/A         32  28  85  CALM    30.23F
#MABTON         N/A         32  30  92  CALM    30.20F
#MOXEE 2E       N/A         30  N/A N/A NE5     30.16S
#NACHES 2SW     N/A         33  29  85  CALM    30.16F
#OUTLOOK DOT    N/A         36  31  82  CALM    30.16
#PARKER DOT     N/A         34  28  78  SE5     30.19F
#TERRACE HTS    N/A         31  28  88  CALM    30.20F
#TOPPENISH      N/A         32  29  89  CALM    30.15F
#I82 S UMTANUM RN/A         31  25  78  W1      N/A
#UNION GAP DOT  N/A         32  28  85  VRB1    30.23F
#W YAKIMA       N/A         32  28  85  CALM    30.23F
#WHITE SWAN 5E  N/A         31  28  88  CALM    30.24F
#WILEY CITY 3W  N/A         31  25  78  CALM    30.14F
#ZILLAH DOT     N/A         32  29  89  W1      N/A
$$

WAZ028-231510-
LOWER COLUMBIA BASIN...WASHINGTON

CITY            SKY/WX      TMP DP  RH  WIND    PRES   REMARKS
PASCO           CLOUDY      32  30  92  CALM    30.23F
PROSSER AWOS    N/A         32  32  100 N3      30.23F
RICHLAND AWOS   CLOUDY      33  32  96  CALM    30.23F
#BENTON CITY    N/A         34  31  89  CALM    30.14F
#CONNELL 5N     N/A         33  32  96  NE1     30.25F
#CONNELL 5NW    N/A         32  10  39  CALM    30.20F
#ELTOPIA 6NW    N/A         36  33  89  CALM    29.17F
#KAHLOTUS       N/A         31  29  92  S12     30.24F WCI 22
#KENNEWICK 3S   N/A         37  32  82  CALM    30.23F
#PATERSON       N/A         33  31  92  CALM    30.22F
#PROSSER DOT    N/A         32  31  96  CALM    30.21F
#SAGEMOOR 2W    N/A         35  32  89  CALM    30.11F
#TOUCHET 2S     N/A         30  28  92  CALM    30.22F
#WEST PASCO     N/A         34  31  89  CALM    30.24F
$$

WAZ029-231510-
FOOTHILLS OF THE BLUES...WASHINGTON

CITY            SKY/WX      TMP DP  RH  WIND    PRES   REMARKS
WALLA WALLA AP  CLOUDY      37  30  75  E7      30.19F
#CLYDE 6NW      N/A         35  32  89  CALM    30.23F
#DELANEY DOT    N/A         30  28  92  CALM    30.26F
#LOWDEN 2SE     N/A         31  29  92  E1      30.19F
#PLEASANT VIEW 1N/A         33  30  89  CALM    30.29F
#PRESCOTT       N/A         36  32  85  CALM    30.22F
#WHITMAN COLLEGEN/A         39  33  79  E3      30.27F
#WAITSBURG 5S   N/A         36  31  82  NE3     30.33F
#WAITSBURG 6SSE N/A         33  28  82  E1      30.08F
#WAITSBURG 8N   N/A          0  N/A N/A NW3     29.94S
#WALLA WALLA 5E N/A         36  31  82  NE5     N/A
#WHITMAN MISSIONN/A         32  30  92  CALM    30.24F
$$

WAZ030-231510-
BLUE MOUNTAINS...WASHINGTON

CITY            SKY/WX      TMP DP  RH  WIND    PRES   REMARKS
#DIXIE 5SE      N/A         38  25  59  SE8     30.07F
$$

ORZ009-041-WAZ024-231510-
COLUMBIA RIVER GORGE

CITY            SKY/WX      TMP DP  RH  WIND    PRES   REMARKS
HOOD RIVER AP   FOG         36  36  100 N3      30.20F VSB 1/2
THE DALLES AP   CLOUDY      37  35  92  CALM    30.22F
#ARLINGTON AIRPON/A         33  31  92  CALM    30.24F
#ARLINGTON HS   N/A         34  31  89  CALM    30.15F
#CELILO DOT     N/A         37  32  82  CALM    N/A
#LYLE           N/A         37  35  92  NE2     30.23F
#MARYHILL       N/A         35  N/A N/A N2      N/A
#MURDOCK        N/A         36  35  96  CALM    30.18F
#RUFUS DOT      N/A         36  N/A N/A S3      N/A
#SMITHVILLE     N/A         36  35  96  CALM    30.17F

$$

ORZ510-231510-
NORTH CENTRAL OREGON

CITY            SKY/WX      TMP DP  RH  WIND    PRES   REMARKS
#ANTELOPE       N/A         30  27  88  NW2     30.09F
#COW CYN RST AREN/A         33  N/A N/A W2      N/A
#DUFUR          N/A         30  29  96  CALM    30.18F
#DUFUR 9E       N/A         35  32  89  SE12    30.25F WCI 27
#KENT DOT       N/A         31  25  78  CALM    N/A
#MAUPIN SCHOOL  N/A         33  29  85  CALM    30.24F
#SHANIKO 5WSW   N/A         32  N/A N/A E13     N/A    WCI 22
#TYGH VALLEY 2NEN/A         31  29  92  CALM    30.22F
#WAPANITIA AIRPON/A         30  28  92  CALM    30.23F
#WASCO DOT      N/A         33  32  96  CALM    N/A
#WASCO 5NE      N/A         34  23  64  CALM    30.21F
$$

ORZ511-231510-
CENTRAL OREGON

CITY            SKY/WX      TMP DP  RH  WIND    PRES   REMARKS
BEND AIRPORT    PTCLDY      32  25  75  SW5     30.15F
PRINEVILLE AP   CLOUDY      36  25  64  S9      30.16S
REDMOND AIRPORT CLOUDY      35  25  66  S8      30.13F
#ASHWOOD SCHOOL N/A         30  27  88  E1      30.10F
#BEND 1SW       N/A         31  27  85  W2      N/A
#BEND-AWBREY    N/A         35  28  75  SW7     30.20S
#BEND-KIM LN    N/A         30  26  85  CALM    30.16S
#CULVER         N/A         34  26  72  SE3     30.04F
#CULVER 8W      N/A         35  21  56  S1      30.10F
#LAKE BILLY CHINN/A         32  N/A N/A CALM    30.22F
#POWELL BUTTE   N/A         36  19  50  E7      30.06F
#PRINEVILLE     N/A         35  28  75  E1      30.30F
#PRINEVILLE 3N  N/A         32  28  85  S2      30.24S
#WARM SPRINGS   N/A         30  28  92  CALM    30.06F

$$


ORZ509-231510-
EAST SLOPES OF OREGON CASCADES

CITY            SKY/WX      TMP DP  RH  WIND    PRES   REMARKS
SISTERS AWOS    N/A         28  25  88  CALM    30.09S
#BLUE BOX PASS  N/A         30  N/A N/A W2      N/A
#CAMP SHERMAN   N/A         28  25  88  CALM    30.29F
#LA PINE DOT    N/A         29  24  81  S6      N/A
#LA PINE 4NW    N/A         27  23  85  CALM    30.31F
#LAVA BUTTE DOT N/A         26  22  85  CALM    N/A
#SISTERS ODOT   N/A         29  24  81  CALM    N/A
#SISTERS 3N     N/A         28  22  78  CALM    30.14S
#SUNRIVER       N/A         27  25  92  S1      30.26F
#TUMALO 3W      N/A         33  27  78  S5      30.06F
#WANOGA BUTTE D N/A         23  22  96  W6      N/A

$$

ORZ044-231510-
LOWER COLUMBIA BASIN...OREGON

CITY            SKY/WX      TMP DP  RH  WIND    PRES   REMARKS
HERMISTON       CLOUDY      32  31  96  S5      30.19F
#BOARDMAN SCHOOLN/A         32  30  92  CALM    30.21F
#BOARDMAN 8SW   N/A         33  31  92  CALM    30.22F
#ECHO 8SW       N/A         33  33  100 CALM    30.21F
#I-84 EX 198 DOTN/A         39  30  70  NE8     N/A
#IONE SCHOOL    N/A         32  18  56  SE1     30.22F
#UMATILLA       N/A         35  30  82  CALM    30.16F
$$

ORZ507-231510-
NORTHERN FOOTHILLS OF THE BLUES

CITY            SKY/WX      TMP DP  RH  WIND    PRES   REMARKS
PENDLETON AIRPT PTCLDY      32  28  85  E5      30.17F
#ADAMS 3WNW     N/A         36  30  79  CALM    30.22F
#ATHENA         N/A         38  29  70  E2      30.25F
#HELIX SCHOOL   N/A         36  31  82  E8      30.24F
#HELIX 3N       N/A         36  30  79  SE8     30.17F
#HOLDMAN 5SE    N/A         34  31  89  SE2     30.16F
#HOLDMAN 6E     N/A         35  30  82  W1      30.02F
#M-F GROVE ELEM N/A         36  29  75  CALM    30.16F
#M-FREEWATER 5SEN/A         43  30  60  E9      30.17F
#PENDLETON DNTN N/A         31  25  78  CALM    N/A
#PDT AQUATIC CTRN/A         30  28  92  CALM    30.18F
#PDT SUNRIDGE   N/A         30  29  96  CALM    30.22F
#PENDLETON 6SE  N/A         38  31  76  SE5     30.18F
#PENDLETON 7NW  N/A         33  29  85  CALM    31.36S
#PILOT ROCK 1S  N/A         34  22  61  CALM    30.17F
#PILOT ROCK     N/A         34  28  78  CALM    30.18F
#TUTUILLA       N/A         29  27  92  CALM    30.23F
#UMAPINE 2E     N/A         31  29  92  CALM    30.18F

$$

ORZ508-231510-
SOUTHERN FOOTHILLS OF THE BLUES

CITY            SKY/WX      TMP DP  RH  WIND    PRES   REMARKS
LEXINGTON       CLOUDY      37  32  82  NE7     30.32F
#AJAX           N/A         33  24  69  CALM    30.29F
#CONDON 5W      N/A         33  27  78  CALM    30.09S
#FOSSIL SCHOOL  N/A         39  28  64  S7      30.08R
#HEPPNER EOC    N/A         38  28  67  E1      30.13F
#HEPPNER 4NE    N/A         38  27  64  SE7     30.20F
#LEXINGTON 2SE  N/A         36  30  79  CALM    30.12F
#MIKKALO        N/A         34  29  82  CALM    30.26F
#OLEX 4N        N/A         34  31  89  CALM    30.17F
#RUGGS 5NE      N/A         38  23  54  E6      30.27F
#RUGGS 2SW      N/A         39  26  59  S17G24  30.19F WCI 30

$$

ORZ502-503-231510-
BLUE MOUNTAINS

CITY            SKY/WX      TMP DP  RH  WIND    PRES   REMARKS
#BATTLE MTN DOT N/A         24  21  88  S8      N/A
#GRANITE        N/A         15   7  70  CALM    29.77F
#HARDMAN 10S    N/A         26  24  92  S5      30.39F
#LADD CYN SMT   N/A         28  28  100 SE12    N/A    WCI 18
#LADD CREEK ODOTN/A         30  25  81  S3      N/A
#LONG CREEK HS  N/A         35  29  78  E2      30.17F
#N POWDER DOT   N/A         26  25  96  CALM    N/A
#PIKES PEAK     N/A         38  21  50  S18G25  27.99S WCI 28
#SUMMERVILLE 5NWN/A         25  24  96  CALM    28.15F
#TOLLGATE       N/A         25  24  96  W2      30.16S
#TROY SCHOOL    N/A         30  28  92  CALM    30.19F
#UKIAH          N/A         23  22  96  CALM    30.23F
#WESTON 4E      N/A         33  27  78  E9      30.22F
$$

ORZ505-231510-
JOHN DAY BASIN

CITY            SKY/WX      TMP DP  RH  WIND    PRES   REMARKS
JOHN DAY        MOCLDY      29  24  81  E7      30.20F
#ANTELOPE 9ESE  N/A         33  29  85  E2      N/A
#DAYVILLE SCHOOLN/A         30  23  75  CALM    30.16F
#MITCHELL 8NW   N/A         37  22  54  SW6     30.26F
#MONUMENT HS    N/A         29  26  88  CALM    30.16F
#MT. VERNON 5SE N/A         33  25  72  E7      30.13F
#WINLOCK        N/A         41  32  70  N3      30.12S
$$

ORZ506-231510-
OCHOCO AND JOHN DAY HIGHLANDS

CITY            SKY/WX      TMP DP  RH  WIND    PRES   REMARKS
#HORSE RIDGE DO N/A         33  21  61  SE8     N/A
#IZEE 6NW       N/A         22  20  92  S2      N/A
#PAULINA ODOT   N/A         24  21  88  CALM    N/A
#PINE MTN OBS   N/A         24  21  88  S10     N/A
#PRAIRIE CITY   N/A         24  18  77  CALM    30.36F
#SENECA         N/A         13  N/A N/A CALM    N/A
#SENECA 9NW     N/A         15  13  92  CALM    30.37S
$$

ORZ049-231510-
GRANDE RONDE VALLEY

CITY            SKY/WX      TMP DP  RH  WIND    PRES   REMARKS
LA GRANDE       CLOUDY      34  27  75  S22G30  30.23F WCI 22
#COVE SCHOOL    N/A         28  25  88  CALM    30.22F
#COVE 6NW       N/A         31  28  88  CALM    30.32F
#ELGIN 3N       N/A         25  20  81  CALM    30.19F
#ELGIN 1E       N/A         27  22  81  CALM    N/A
#IMBLER SCHOOL  N/A         29  26  88  CALM    30.19F
#ISLAND CITY 4N N/A         41  40  96  CALM    30.14S
#LADD CYN DOT   N/A         34  29  82  S18G31  N/A    WCI 23
#UNION 1S       N/A         32  28  85  SE7     30.32F
$$

ORZ050-231510-
WALLOWA COUNTY

CITY            SKY/WX      TMP DP  RH  WIND    PRES   REMARKS
JOSEPH AIRPORT  MOCLDY      21  18  88  CALM    30.20F
#ENTERPRISE HS  N/A         20  18  92  CALM    30.24F
#IMNAHA SCHOOL  N/A         31  26  81  E3      30.27F
#IMNAHA 10S     N/A         31  27  85  SW2     29.99S
#JOSEPH         N/A         22  14  71  CALM    30.34F
#JOSEPH 3N      N/A         18  12  77  CALM    30.21F
#JOSEPH 3W      N/A         25  16  68  CALM    29.98F
#LOSTINE        N/A         20  18  92  CALM    30.16F
#LOSTINE 3SE    N/A         19  16  88  CALM    30.24F
#MT HOWARD 8000 N/A         19  12  74  SW8     30.03S
#PROMISE 1S     N/A         25  23  92  CALM    30.42S
#WALLOWA LAKE   N/A         25  22  88  CALM    30.18F
#WALLOWA SCHOOL N/A         22  19  88  CALM    30.20F



$$



USA.gov is the U.S. government's official web portal to all federal, state and local government web resources and services.